User: anonymous   Login
Location: Vancouver
(49.2500°N, 123.1330°W)
Time: 02:35:47
(UTC-07:00)
Language:

Oscar 11 - Orbit

View from above orbital plane
View from above orbital plane
View from above satellite
View from above satellite

Ground track
Ground track

The orbit data is extracted from the following two-line orbital elements,

1 14781U 84021B   16149.19373586  .00000181  00000-0  28731-4 0  9994
2 14781  97.7510 201.8075 0009143  29.5230 330.6498 14.82744218733291
Epoch (UTC): 28 May 2016 04:38:58
Eccentricity: 0.0009143
inclination: 97.7510°
perigee height: 614 km
apogee height: 627 km
right ascension of ascending node: 201.8075°
argument of perigee: 29.5230°
revolutions per day: 14.82744218
mean anomaly at epoch: 330.6498°
orbit number at epoch: 73329

The dashed part of the orbit path shows where the satellite is in the earth's shadow,  

DLR